MST,Max TemperatureF,Mean TemperatureF,Min TemperatureF,Max Dew PointF,MeanDew PointF,Min DewpointF,Max Humidity, Mean Humidity, Min Humidity, Max Sea Level PressureIn, Mean Sea Level PressureIn, Min Sea Level PressureIn, Max VisibilityMiles, Mean VisibilityMiles, Min VisibilityMiles, Max Wind SpeedMPH, Mean Wind SpeedMPH, Max Gust SpeedMPH,PrecipitationIn, CloudCover, Events, WindDirDegrees
2012-12-1,75,56,37,25,20,18,56,32,12,30.10,30.06,30.03,10,10,10,21,7,17,0.00,0,,238
2012-12-2,75,55,35,45,23,14,72,37,11,30.14,30.06,30.01,10,10,10,16,7,18,0.00,0,,217
2012-12-3,75,56,37,43,29,19,100,48,13,30.14,30.05,29.99,10,9,0,13,8,21,0.00,1,Fog,281
2012-12-4,62,50,37,32,29,25,70,51,32,30.39,30.30,30.15,10,9,0,13,5,,0.00,0,,350
2012-12-5,66,50,35,32,28,23,65,48,24,30.34,30.14,29.98,10,10,10,14,2,21,0.00,0,,186
2012-12-6,77,56,35,28,24,18,75,35,11,29.98,29.91,29.85,10,10,10,15,3,18,0.00,0,,316
2012-12-7,66,49,32,27,24,21,70,42,21,29.95,29.89,29.84,10,10,10,8,2,,0.00,0,,333
2012-12-8,68,52,37,27,24,21,60,39,20,29.94,29.86,29.80,10,10,10,22,4,28,0.00,0,,218
2012-12-9,48,37,26,30,20,9,86,46,35,30.23,29.99,29.84,10,9,4,30,13,39,0.02,1,Rain-Snow,351
2012-12-10,42,30,17,21,10,3,86,50,21,30.23,30.08,29.98,10,10,10,17,8,22,0.00,0,Rain,282
2012-12-11,50,36,23,14,7,1,55,38,16,30.13,30.07,29.99,10,10,10,18,6,18,0.00,0,,286
2012-12-12,60,42,23,10,6,1,50,28,12,30.14,30.10,30.04,10,10,10,14,7,18,0.00,0,,186
2012-12-13,64,45,26,43,26,12,87,52,21,30.14,30.07,30.02,10,10,10,12,8,,0.00,1,,157
2012-12-14,66,52,39,46,36,27,100,68,46,30.02,29.90,29.68,10,10,4,32,15,44,0.00,2,Rain,207
2012-12-15,57,46,35,32,28,25,70,50,33,30.00,29.93,29.89,10,10,10,26,11,37,0.00,0,,230
2012-12-16,57,46,35,50,29,23,88,53,33,30.00,29.91,29.81,10,10,10,25,11,34,0.00,1,Rain,248
2012-12-17,62,47,32,27,22,19,69,47,19,30.01,29.95,29.89,10,10,10,18,12,25,0.00,0,,247
2012-12-18,69,50,32,28,21,16,75,37,15,29.89,29.82,29.75,10,10,10,22,10,32,0.00,0,,210
2012-12-19,64,46,26,30,14,3,47,30,16,30.25,29.87,29.66,10,9,2,44,14,63,0.00,0,,255
2012-12-20,48,32,17,9,3,-2,58,33,13,30.47,30.38,30.25,10,10,10,13,7,,0.00,0,,267
2012-12-21,53,35,17,1,-1,-4,45,25,9,30.41,30.30,30.22,10,10,10,14,5,,0.00,0,,170
2012-12-22,60,43,26,12,5,0,34,24,11,30.21,30.10,30.02,10,10,10,14,5,,0.00,0,,217
2012-12-23,66,49,32,19,14,5,45,30,16,30.05,30.02,29.97,10,10,10,15,10,,0.00,0,,257
2012-12-24,59,42,26,23,14,5,45,30,18,30.01,29.83,29.66,10,10,10,24,8,34,0.00,1,,234
2012-12-25,44,32,17,32,15,9,80,61,38,30.22,30.05,29.67,10,10,8,28,16,33,0.00,0,,330
2012-12-26,39,28,17,16,13,9,73,60,39,30.21,30.02,29.84,10,10,10,13,7,,0.00,1,,110
2012-12-27,50,36,23,27,16,12,69,45,24,29.85,29.80,29.73,10,10,10,22,4,39,0.00,0,Rain,192
2012-12-28,42,30,19,25,16,9,80,55,34,30.22,30.04,29.83,10,10,9,16,7,17,0.00,0,,296
2012-12-29,46,30,15,16,11,7,73,50,27,30.38,30.27,30.21,10,10,10,13,3,,0.00,0,,140
2012-12-30,41,34,26,32,19,9,100,59,33,30.22,30.07,29.97,10,9,2,17,4,20,0.23,2,Rain,130
2012-12-31,50,41,32,34,30,25,100,69,37,30.04,29.97,29.91,10,9,3,30,11,38,0.05,4,Rain,217